Regional Weather Roundup
Issued by NWS Kansas City/Pleasant Hill, MO

Home | Current Version | Previous Version | Graphics & Text | Print | Product List | Glossary Off
Versions: 1 2 3 4 5 6 7 8 9 10 11 12 13 14 15 16 17 18 19 20 21 22 23 24 25 26 27 28 29 30 31 32 33 34 35 36 37 38 39 40 41 42 43 44 45 46 47 48 49 50

000
ASUS43 KEAX 020710
RWREAX

WEATHER ROUNDUP FOR EASTERN KANSAS AND NORTHWEST MISSOURI
NATIONAL WEATHER SERVICE KANSAS CITY/PLEASANT HILL MO
200 AM CDT TUE JUN 02 2015

KSZ040-057-103>105-MOZ028-029-037-043-020800-
...KANSAS CITY METROPOLITAN AREA...

CITY           SKY/WX    TMP DP  RH WIND       PRES   REMARKS
K.C. INTL      CLOUDY    59  53  80 S8        30.12F
K.C. DOWNTOWN  CLOUDY    62  52  69 S9        30.12S
LEES SUMMIT    CLOUDY    60  53  77 SE6       30.13S
OLATHE - IXD   CLOUDY    59  53  80 SE9       30.13F
OLATHE - OJC   CLOUDY    59  53  80 S5        30.12S
LAWRENCE       MOCLDY    58  53  84 SE8       30.11F

$$

MOZ001>008-011>017-020>025-030>033-038>040-044>046-053-054-020800-
...NORTHERN AND CENTRAL MISSOURI...

CITY           SKY/WX    TMP DP  RH WIND       PRES   REMARKS
ST. JOSEPH     CLOUDY    61  54  77 S12       30.12S
MOSBY          CLOUDY    59  54  82 SE3       30.13R
HARRISONVILLE  CLOUDY    61  55  82 SE3       30.14F
WARRENSBURG    CLOUDY    59  52  77 SE7       30.12S
WHITEMAN AFB   CLOUDY    59  55  85 S2        30.12S
CLINTON        CLOUDY    61  55  82 SE3       30.13S
SEDALIA        CLOUDY    60  55  83 SE5       30.14S
WARSAW         FOG       59  55  88 CALM      30.13F VSB 1/2
CHILLICOTHE      N/A     61  54  77 CALM      30.14S
MOBERLY          N/A     54  50  87 CALM      30.14F FOG
KIRKSVILLE     CLEAR     51  51 100 CALM      30.14S FOG

$$

MOZ041-047>049-056>058-063>065-088>090-097-020800-
...EASTERN AND SOUTHERN MISSOURI...

CITY           SKY/WX    TMP DP  RH WIND       PRES   REMARKS
ST. LOUIS INTL MOCLDY    63  56  78 CALM      30.12S
SPIRIT OF STL  CLOUDY    59  58  96 SW3       30.11S
COLUMBIA       CLOUDY    58  56  93 E3        30.13S
JEFFERSON CITY CLOUDY    60  56  86 E3        30.13S
MEXICO         CLOUDY   N/A N/A N/A CALM      30.14S
ROLLA          CLOUDY    57  56  96 CALM      30.11F
LEBANON        CLOUDY    57  55  94 E3        30.13S
OSAGE BEACH    CLOUDY    57  55  94 NE6       30.12F
SPRINGFIELD    CLEAR     56  53  90 E6        30.11S
BRANSON        CLOUDY    59  55  88 CALM      30.12S
NEVADA         PTCLDY    54  54 100 E5        30.13S
JOPLIN         CLEAR     56  54  93 NE6       30.10S
WEST PLAINS    CLOUDY    58  55  90 NE3       30.12F

$$

IAZ060-094-KSZ022-034>040-054-083-096-NEZ052-066-093-020800-
...KANSAS...SOUTHEAST NEBRASKA AND IOWA...

CITY           SKY/WX    TMP DP  RH WIND       PRES   REMARKS
TOPEKA         CLEAR     56  53  90 SE6       30.10F
MANHATTAN      PTCLDY    59  55  87 E7        30.06F
EMPORIA        CLOUDY    57  55  93 SE9       30.09F
CHANUTE        CLOUDY    58  55  90 E10       30.10F
WICHITA        MOCLDY    65  58  78 SE12      30.05S
OMAHA          PTCLDY    61  55  81 S15       30.07F
LINCOLN        MOCLDY    59  54  83 S12       30.06R
FALLS CITY     CLEAR     57  52  83 SE10      30.09F
LAMONI         CLOUDY    60  54  80 S8        30.13S
DES MOINES     PTCLDY    57  52  83 S5        30.13S

$$




USA.gov is the U.S. government's official web portal to all federal, state and local government web resources and services.